N9UMJ-12 Weather Reports


time (UTC)temp
F
wind
direction
speed
knots
gust
knots
rain 1hr
in
rain 24hr
in
rain mn
in
humidity
%
barometer
mb
20260504050517 55 192 1.7 6.1 0.00 0.02 0.00 68 1012.2
20260504045517 56 280 0.0 2.6 0.00 0.02 0.00 68 1012.3
20260504044641 56 194 1.7 4.3 0.00 0.02 0.00 67 1012.4
20260504043521 56 177 2.6 5.2 0.00 0.02 0.00 68 1012.4
20260504042521 57 179 1.7 4.3 0.00 0.02 0.00 67 1012.4
20260504041517 57 195 1.7 5.2 0.00 0.02 0.00 66 1012.5
20260504040518 57 184 1.7 5.2 0.00 0.02 0.00 66 1012.6
20260504035518 57 182 2.6 7.0 0.00 0.02 0.02 66 1012.6
20260504034519 57 184 2.6 7.8 0.00 0.02 0.02 66 1012.8
20260504033519 57 177 2.6 8.7 0.00 0.02 0.02 67 1013.0
20260504032519 57 180 1.7 5.2 0.00 0.02 0.02 66 1013.1
20260504031519 58 184 2.6 6.1 0.00 0.02 0.02 65 1013.1
20260504030519 58 188 2.6 6.1 0.00 0.02 0.02 65 1013.1
20260504025540 58 179 4.3 7.8 0.00 0.02 0.02 65 1013.0
20260504024520 58 181 4.3 7.8 0.00 0.02 0.02 64 1013.0
20260504023520 58 181 3.5 7.8 0.00 0.02 0.02 64 1013.0
20260504022520 58 179 3.5 7.0 0.00 0.02 0.02 65 1013.1
20260504021520 58 185 3.5 6.1 0.00 0.02 0.02 65 1013.2
20260504020537 58 186 1.7 5.2 0.00 0.02 0.02 65 1013.2
20260504015520 58 181 2.6 5.2 0.00 0.02 0.02 65 1013.1
20260504014520 59 188 1.7 4.3 0.00 0.02 0.02 65 1013.2
20260504013521 59 177 3.5 6.1 0.00 0.02 0.02 64 1013.1
20260504012538 60 174 2.6 5.2 0.00 0.02 0.02 63 1013.2
20260504011518 59 173 1.7 3.5 0.00 0.02 0.02 64 1013.6
20260504010518 60 169 1.7 4.3 0.00 0.02 0.02 63 1013.6
20260504005521 60 164 1.7 3.5 0.00 0.02 0.02 62 1013.6
20260504004538 60 170 0.9 4.3 0.00 0.02 0.02 63 1013.7
20260504003538 60 156 0.9 2.6 0.00 0.02 0.02 62 1013.8
20260504002519 61 42 0.0 1.7 0.00 0.02 0.02 62 1013.8
20260504001519 61 222 0.9 3.5 0.00 0.02 0.02 60 1013.8
20260504000539 61 218 0.9 3.5 0.00 0.02 0.02 60 1013.8
20260503235539 62 212 1.7 6.1 0.00 0.02 0.02 59 1013.6
20260503234520 62 249 1.7 5.2 0.00 0.02 0.02 59 1013.5
20260503233520 62 222 1.7 6.1 0.00 0.02 0.02 59 1013.2
20260503232520 63 210 2.6 7.0 0.00 0.02 0.02 58 1013.1
20260503231517 63 206 2.6 6.1 0.00 0.02 0.02 58 1013.2
20260503230540 63 209 2.6 6.1 0.00 0.02 0.02 57 1013.3
20260503225520 63 242 1.7 5.2 0.00 0.02 0.02 57 1013.4
20260503224520 63 240 2.6 6.1 0.00 0.02 0.02 57 1013.5
20260503223538 63 177 3.5 8.7 0.00 0.02 0.02 57 1013.5
20260503222538 63 212 3.5 9.6 0.00 0.02 0.02 58 1013.5
20260503221518 62 177 3.5 10.4 0.00 0.02 0.02 58 1013.8
20260503220521 62 238 2.6 6.1 0.00 0.02 0.02 57 1013.8
20260503215518 62 186 3.5 9.6 0.00 0.02 0.02 57 1014.1
20260503214518 62 194 4.3 7.8 0.00 0.02 0.02 57 1014.5
20260503213519 62 173 4.3 10.4 0.00 0.02 0.02 57 1014.6
20260503212539 62 184 4.3 13.0 0.00 0.02 0.02 57 1014.6
20260503211519 62 206 3.5 12.2 0.00 0.02 0.02 56 1015.0
20260503210539 63 247 3.5 6.1 0.00 0.02 0.02 56 1015.4
20260503205519 62 253 2.6 7.0 0.00 0.02 0.02 57 1015.7
20260503204520 62 222 3.5 9.6 0.00 0.02 0.02 56 1015.9
20260503203520 63 239 2.6 6.1 0.00 0.02 0.02 56 1016.0
20260503202520 62 208 4.3 9.6 0.00 0.02 0.02 56 1015.6
20260503201517 62 220 3.5 12.2 0.00 0.02 0.02 56 1016.0
20260503200541 62 192 2.6 9.6 0.00 0.02 0.02 56 1016.0
20260503195520 62 245 3.5 6.1 0.00 0.02 0.02 55 1016.4
20260503194521 62 255 3.5 6.1 0.00 0.02 0.02 55 1016.4
20260503193518 62 232 3.5 7.8 0.00 0.02 0.02 56 1016.5
20260503192518 62 194 4.3 8.7 0.00 0.02 0.02 56 1016.9
20260503191541 61 230 4.3 10.4 0.00 0.02 0.02 56 1017.0
20260503190518 61 247 3.5 7.8 0.00 0.02 0.02 56 1017.2
20260503185518 62 238 3.5 9.6 0.00 0.02 0.02 55 1017.3
20260503184518 61 193 3.5 10.4 0.00 0.02 0.02 56 1017.7
20260503183519 60 198 4.3 7.8 0.00 0.02 0.02 57 1017.9
20260503182519 60 229 3.5 9.6 0.00 0.02 0.02 57 1018.2
20260503181519 60 178 5.2 12.2 0.00 0.02 0.02 57 1018.3
20260503180519 60 199 4.3 10.4 0.00 0.02 0.02 58 1018.5
20260503175519 60 188 5.2 11.3 0.00 0.02 0.02 56 1018.8
20260503174520 60 183 3.5 10.4 0.00 0.02 0.02 56 1018.8
20260503173517 59 245 4.3 7.8 0.00 0.02 0.02 56 1019.0
20260503172540 59 177 4.3 10.4 0.00 0.02 0.02 56 1019.0
20260503171520 59 186 3.5 7.0 0.00 0.02 0.02 56 1019.2
20260503170520 59 183 5.2 10.4 0.00 0.02 0.02 56 1019.3
20260503150519 55 181 2.6 7.8 0.00 0.02 0.02 60 1020.8
20260503130538 45 255 1.7 3.5 0.00 0.02 0.02 76 1021.1
20260503110526 33 264 0.0 0.9 0.02 0.03 0.02 99 1020.1
20260503081529 35 295 0.0 0.0 0.00 0.02 0.00 98 1019.8
20260503080548 34 276 0.0 0.0 0.00 0.02 0.00 98 1019.8
20260503072529 34 277 0.0 0.0 0.00 0.02 0.00 98 1019.7
20260503071518 34 288 0.0 0.9 0.00 0.02 0.00 97 1019.8
20260503070518 34 246 0.0 0.0 0.00 0.02 0.00 97 1019.9